Bettles, AK

10:32 PM AKDT on July 20, 2019 (GMT -0800)
Bettles

Weather History for PABT - May, 2019

Change the Weather History Date:

Tuesday, May 21, 2019

  Actual Average Record
Temperature  
Mean Temperature 54 °F -  
Max Temperature 69 °F 54 °F 73 °F (1969)
Min Temperature 39 °F 35 °F 22 °F (1983)
Degree Days  
Heating Degree Days 11    
Growing Degree Days 4 (Base 50)    
Moisture  
Dew Point 36 °F    
Average Humidity 52    
Maximum Humidity 93    
Minimum Humidity 18    
Precipitation  
Precipitation 0.00 in - - ()
Sea Level Pressure  
Sea Level Pressure 30.01 in    
Wind  
Wind Speed 2 mph (NW)    
Max Wind Speed 7 mph    
Max Gust Speed -    
Visibility 10 miles    
Events      
Averages and records for this station are not official NWS values.
T = Trace of Precipitation, MM = Missing Value Source: NWS Daily Summary

Daily Weather History Graph

Daily Weather History Graph

Search for Another Location

Airport or City:

Astronomy

May. 21, 2019 Rise Set
Actual Time 3:45 AM AKDT 12:24 AM AKDT
Civil Twilight Sun does not set Sun does not set
Nautical Twilight Sun does not set Sun does not set
Astronomical Twilight Sun does not set Sun does not set
Moon 3:08 AM AKDT 5:30 AM AKDT
Length of Visible Light 24h 00m
Length of Day
20h 39m
Waning Gibbous, 90% of the Moon is Illuminated
May 21
Waning Gibbous
May 26
Last Quarter
Jun 3
New
Jun 9
First Quarter
Jun 17
Full

Hourly Weather History & Observations

Time (AKDT) Temp. Windchill Dew Point Humidity Pressure Visibility Wind Dir Wind Speed Gust Speed Precip Events Conditions
12:53 AM 48.0 °F - 41.0 °F 77% 29.85 in 10.0 mi Calm Calm - N/A   Mostly Cloudy
1:53 AM 45.0 °F 43.5 °F 41.0 °F 86% 29.88 in 10.0 mi West 3.5 mph - N/A   Scattered Clouds
2:53 AM 44.1 °F 42.5 °F 41.0 °F 89% 29.91 in 10.0 mi WSW 3.5 mph - 0.00 in   Mostly Cloudy
3:53 AM 41.0 °F - 39.0 °F 93% 29.93 in 10.0 mi Calm Calm - N/A   Partly Cloudy
4:53 AM 39.0 °F - 37.0 °F 93% 29.95 in 10.0 mi Calm Calm - N/A   Scattered Clouds
5:53 AM 41.0 °F - 37.9 °F 89% 29.97 in 10.0 mi Calm Calm - N/A   Scattered Clouds
6:53 AM 43.0 °F - 39.0 °F 86% 29.99 in 10.0 mi Calm Calm - N/A   Scattered Clouds
7:53 AM 48.0 °F - 41.0 °F 77% 30.01 in 10.0 mi Calm Calm - N/A   Partly Cloudy
8:53 AM 53.1 °F - 43.0 °F 69% 30.02 in 10.0 mi Calm Calm - N/A   Partly Cloudy
9:53 AM 55.0 °F - 39.9 °F 57% 30.03 in 10.0 mi Calm Calm - N/A   Partly Cloudy
10:53 AM 59.0 °F - 39.0 °F 48% 30.03 in 10.0 mi Calm Calm - N/A   Partly Cloudy
11:53 AM 62.1 °F - 37.0 °F 39% 30.04 in 10.0 mi North 3.5 mph - N/A   Partly Cloudy
12:53 PM 63.0 °F - 36.0 °F 37% 30.04 in 10.0 mi Calm Calm - N/A   Partly Cloudy
1:53 PM 64.0 °F - 33.1 °F 31% 30.04 in 10.0 mi Calm Calm - N/A   Partly Cloudy
2:53 PM 64.9 °F - 30.9 °F 28% 30.04 in 10.0 mi West 4.6 mph - N/A   Partly Cloudy
3:53 PM 64.9 °F - 32.0 °F 29% 30.04 in 10.0 mi SSW 6.9 mph - N/A   Partly Cloudy
4:53 PM 66.9 °F - 30.9 °F 26% 30.04 in 10.0 mi West 5.8 mph - N/A   Partly Cloudy
5:53 PM 66.9 °F - 30.9 °F 26% 30.04 in 10.0 mi Variable 4.6 mph - N/A   Scattered Clouds
6:53 PM 69.1 °F - 30.9 °F 24% 30.04 in 10.0 mi Variable 3.5 mph - N/A   Scattered Clouds
7:53 PM 68.0 °F - 30.9 °F 25% 30.04 in 10.0 mi NNW 4.6 mph - N/A   Mostly Cloudy
8:53 PM 66.0 °F - 32.0 °F 28% 30.04 in 10.0 mi North 5.8 mph - N/A   Mostly Cloudy
9:53 PM 63.0 °F - 34.0 °F 34% 30.05 in 10.0 mi North 3.5 mph - N/A   Mostly Cloudy
10:53 PM 60.1 °F - 36.0 °F 41% 30.06 in 10.0 mi North 3.5 mph - N/A   Mostly Cloudy
11:53 PM 52.0 °F - 37.9 °F 59% 30.07 in 10.0 mi Calm Calm - N/A   Scattered Clouds